x

8726607 - Old Port Tampa, Fl (optf1) Weather Station

4:30pm - Fri 28th Nov 2014 All times are EST. -5 hours from GMT.

  • Wind
    7mph, 11mph gusts
  • Sea Temp 64°f
  • Air Temp 60°f
  • Sea Pressure 1024.8mb
  • 8726607 - Old Port Tampa, Fl
  • 8726607 - Old Port Tampa, Fl

More Historic Weather Station data

Upgrade to MSW Pro to gain access to the past 30 days of data for over 8000 Wavebouys and Weather Stations around the globe.

Join Pro

Comparision Forecast

View Surf forecast
   
Fri 11/28 4:30pm 7 11 mph 1024.8mb 64f 60f
4:24pm 6 10 mph 1024.8mb 64f 60f
4:18pm 7 9 mph 1024.9mb 64f 60f
4:12pm 6 9 mph 1025mb 64f 60f
4:06pm 7 9 mph 1024.9mb 64f 60f
4:00pm 8 10 mph 1024.9mb 64f 60f
3:54pm 6 9 mph 1024.8mb 64f 60f
3:48pm 6 9 mph 1024.7mb 64f 60f
3:42pm 5 9 mph 1024.7mb 64f 60f
3:36pm 6 9 mph 1024.7mb 64f 60f
3:30pm 5 7 mph 1024.7mb 64f 60f
3:24pm 6 9 mph 1024.7mb 64f 60f
3:18pm 7 9 mph 1024.8mb 64f 60f
3:12pm 7 8 mph 1024.8mb 64f 59f
3:06pm 5 9 mph 1024.9mb 64f 59f
3:00pm 6 10 mph 1025mb 64f 59f
2:54pm 8 11 mph 1024.9mb 64f 59f
2:48pm 6 10 mph 1025mb 64f 58f
2:42pm 7 9 mph 1025mb 64f 58f
2:36pm 8 10 mph 1025.1mb 64f 58f
2:30pm 6 9 mph 1025.1mb 64f 58f
2:24pm 6 8 mph 1025.1mb 64f 57f
2:18pm 6 8 mph 1025.2mb 64f 57f
2:12pm 6 9 mph 1025.3mb 64f 56f
2:06pm 7 8 mph 1025.3mb 64f 57f
2:00pm 6 9 mph 1025.3mb 64f 57f
1:54pm 8 10 mph 1025.4mb 64f 56f
1:48pm 3 7 mph 1025.5mb 63f 56f
1:42pm 8 9 mph 1025.6mb 63f 56f
1:36pm 5 10 mph 1025.7mb 64f 56f
1:30pm 9 10 mph 1025.8mb 63f 55f
1:24pm 8 10 mph 1025.9mb 63f 55f
1:18pm 8 9 mph 1026mb 63f 55f
1:12pm 9 11 mph 1026.1mb 63f 55f
1:06pm 9 11 mph 1026.2mb 63f 54f
1:00pm 7 11 mph 1026.3mb 63f 54f
12:54pm 9 11 mph 1026.4mb 63f 54f
12:48pm 9 11 mph 1026.6mb 63f 54f
12:42pm 7 10 mph 1026.6mb 63f 54f
12:36pm 8 9 mph 1026.8mb 63f 54f
12:30pm 6 8 mph 1026.8mb 63f 54f
12:24pm 6 9 mph 1026.9mb 63f 53f
12:18pm 6 8 mph 1027.1mb 63f 53f
12:12pm 5 8 mph 1027.1mb 63f 53f
12:06pm 5 9 mph 1027.2mb 63f 53f
12:00pm 6 10 mph 1027.2mb 63f 52f
11:54am 6 8 mph 1027.3mb 63f 53f
11:48am 5 7 mph 1027.4mb 63f 52f
11:42am 5 9 mph 1027.5mb 63f 51f
11:36am 3 8 mph 1027.6mb 63f 51f
11:30am 6 9 mph 1027.7mb 63f 51f
11:24am 6 9 mph 1027.8mb 63f 51f
11:18am 5 10 mph 1027.9mb 63f 51f
11:12am 7 9 mph 1027.9mb 63f 51f
11:06am 6 9 mph 1028mb 63f 51f
11:00am 7 11 mph 1028.1mb 63f 50f
10:54am 6 10 mph 1028.1mb 63f 51f
10:48am 7 9 mph 1028.3mb 63f 50f
10:42am 6 8 mph 1028.4mb 63f 50f
10:36am 6 8 mph 1028.5mb 63f 50f
10:30am 6 8 mph 1028.5mb 63f 49f
10:24am 6 10 mph 1028.5mb 63f 49f
10:18am 7 13 mph 1028.6mb 63f 48f
10:12am 8 11 mph 1028.6mb 63f 48f
10:06am 8 10 mph 1028.5mb 63f 48f
10:00am 8 11 mph 1028.5mb 63f 48f
9:54am 8 11 mph 1028.6mb 63f 48f
9:48am 7 11 mph 1028.6mb 63f 48f
9:42am 9 14 mph 1028.6mb 63f 47f
9:36am 9 11 mph 1028.7mb 63f 47f
9:30am 9 14 mph 1028.6mb 63f 46f
9:24am 10 15 mph 1028.6mb 63f 46f
9:18am 7 13 mph 1028.6mb 63f 47f
9:12am 10 14 mph 1028.5mb 63f 46f
9:06am 10 15 mph 1028.5mb 63f 46f
9:00am 9 15 mph 1028.5mb 63f 46f
8:54am 10 16 mph 1028.5mb 63f 46f
8:48am 10 20 mph 1028.4mb 63f 45f
8:42am 11 21 mph 1028.4mb 63f 45f
8:36am 13 17 mph 1028.3mb 63f 45f
8:30am 9 16 mph 1028.3mb 63f 45f
8:24am 11 16 mph 1028.2mb 64f 45f
8:18am 11 18 mph 1028.1mb 64f 45f
8:12am 15 18 mph 1028.1mb 64f 44f
8:06am 14 18 mph 1028mb 64f 45f
8:00am 15 18 mph 1028mb 64f 44f
7:54am 14 18 mph 1027.9mb 64f 44f
7:48am 14 17 mph 1027.9mb 64f 45f
7:42am 14 17 mph 1027.8mb 64f 44f
7:36am 13 17 mph 1027.8mb 64f 44f
7:30am 11 18 mph 1027.7mb 64f 44f
7:24am 13 16 mph 1027.7mb 64f 44f
7:18am 15 20 mph 1027.6mb 64f 44f
7:12am 14 18 mph 1027.5mb 64f 44f
7:06am 11 21 mph 1027.5mb 63f 44f
7:00am 13 18 mph 1027.4mb 63f 44f
6:54am 15 21 mph 1027.3mb 63f 44f
6:48am 11 18 mph 1027.3mb 63f 44f
6:42am 13 17 mph 1027.3mb 63f 45f
6:36am 14 17 mph 1027.1mb 63f 45f
6:30am 9 18 mph 1027.1mb 63f 45f
6:24am 13 17 mph 1027.1mb 63f 45f
6:18am 10 18 mph 1027.1mb 64f 45f
6:12am 14 17 mph 1027mb 64f 45f
6:06am 15 20 mph 1027mb 64f 45f
6:00am 13 21 mph 1026.9mb 64f 45f
5:54am 14 20 mph 1026.9mb 64f 46f
5:48am 13 17 mph 1026.7mb 64f 46f
5:42am 14 22 mph 1026.7mb 64f 46f
5:36am 14 20 mph 1026.7mb 64f 46f
5:30am 13 20 mph 1026.6mb 64f 46f
5:24am 14 22 mph 1026.6mb 64f 46f
5:18am 13 22 mph 1026.6mb 64f 46f
5:12am 16 20 mph 1026.5mb 64f 47f
5:06am 17 21 mph 1026.4mb 64f 47f
5:00am 13 18 mph 1026.3mb 64f 47f
4:54am 14 23 mph 1026.4mb 64f 47f
4:48am 14 22 mph 1026.3mb 64f 47f
4:42am 15 22 mph 1026.3mb 64f 48f
4:36am 15 22 mph 1026.3mb 64f 48f
4:30am 18 23 mph 1026.3mb 64f 48f
4:24am 16 23 mph 1026.3mb 64f 48f
4:18am 16 22 mph 1026.2mb 63f 48f
4:12am 15 23 mph 1026.3mb 64f 49f
4:06am 15 22 mph 1026.3mb 64f 49f
4:00am 15 25 mph 1026.4mb 64f 49f
3:54am 16 24 mph 1026.4mb 64f 49f
3:48am 13 21 mph 1026.4mb 64f 49f
3:42am 14 21 mph 1026.4mb 64f 49f
3:36am 15 21 mph 1026.4mb 63f 49f
3:30am 17 23 mph 1026.4mb 63f 49f
3:24am 17 25 mph 1026.3mb 63f 50f
3:18am 18 23 mph 1026.3mb 63f 50f
3:12am 16 21 mph 1026.4mb 63f 50f
3:06am 15 20 mph 1026.5mb 63f 50f
3:00am 15 20 mph 1026.5mb 64f 50f
2:54am 15 18 mph 1026.5mb 64f 51f
2:48am 11 18 mph 1026.6mb 64f 50f
2:42am 14 16 mph 1026.6mb 64f 51f
2:36am 14 17 mph 1026.6mb 64f 51f
2:30am 14 20 mph 1026.6mb 64f 51f
2:24am 16 21 mph 1026.5mb 64f 51f
2:18am 15 18 mph 1026.6mb 64f 51f
2:12am 14 20 mph 1026.5mb 64f 51f
2:06am 15 17 mph 1026.6mb 64f 52f
2:00am 15 20 mph 1026.6mb 64f 52f
1:54am 15 21 mph 1026.5mb 64f 52f
1:48am 14 21 mph 1026.6mb 64f 52f
1:42am 17 22 mph 1026.6mb 64f 52f
1:36am 16 20 mph 1026.5mb 64f 52f
1:30am 17 20 mph 1026.4mb 64f 53f
1:24am 16 18 mph 1026.5mb 64f 53f
1:18am 15 20 mph 1026.5mb 64f 53f
1:12am 16 20 mph 1026.5mb 64f 53f
1:06am 18 22 mph 1026.4mb 64f 53f
1:00am 16 21 mph 1026.4mb 64f 53f
12:54am 17 22 mph 1026.4mb 64f 53f
12:48am 16 23 mph 1026.4mb 64f 53f
12:42am 21 25 mph 1026.3mb 64f 53f
12:36am 20 24 mph 1026.3mb 64f 53f
12:30am 21 24 mph 1026.3mb 64f 54f
12:24am 21 25 mph 1026.3mb 64f 54f
12:18am 18 23 mph 1026.3mb 64f 54f
12:12am 20 26 mph 1026.4mb 64f 54f
12:06am 20 25 mph 1026.4mb 65f 54f
12:00am 18 23 mph 1026.4mb 65f 55f
Thu 11/27 11:54pm 17 23 mph 1026.4mb 65f 55f
11:48pm 17 24 mph 1026.5mb 65f 55f
11:42pm 18 22 mph 1026.5mb 65f 55f
11:36pm 17 24 mph 1026.5mb 65f 55f
11:30pm 18 25 mph 1026.5mb 65f 55f
11:24pm 18 24 mph 1026.5mb 65f 55f
11:18pm 20 26 mph 1026.5mb 65f 55f
11:12pm 22 28 mph 1026.4mb 65f 56f
11:06pm 22 28 mph 1026.5mb 65f 55f
11:00pm 22 25 mph 1026.4mb 65f 56f
10:54pm 22 25 mph 1026.5mb 65f 56f
10:48pm 21 25 mph 1026.5mb 65f 56f
10:42pm 21 24 mph 1026.5mb 65f 56f
10:36pm 20 26 mph 1026.5mb 65f 57f
10:30pm 18 23 mph 1026.4mb 65f 57f
10:24pm 18 24 mph 1026.4mb 65f 57f
10:18pm 21 23 mph 1026.3mb 65f 57f
10:12pm 18 24 mph 1026.3mb 65f 58f
10:06pm 20 23 mph 1026.2mb 65f 58f
10:00pm 17 21 mph 1026.2mb 65f 58f
9:54pm 18 22 mph 1026.1mb 65f 58f
9:48pm 18 22 mph 1026mb 65f 58f
9:42pm 21 24 mph 1026mb 65f 58f
9:36pm 21 23 mph 1026mb 65f 58f
9:30pm 18 23 mph 1026mb 65f 58f
9:24pm 21 23 mph 1025.9mb 65f 58f
9:18pm 20 23 mph - 65f 58f
9:12pm 20 24 mph - 65f 58f
9:06pm 18 23 mph - 65f 58f
9:00pm 20 24 mph 1025.6mb 65f 58f
8:54pm 20 24 mph 1025.6mb 65f 58f
8:48pm 18 21 mph 1025.6mb 65f 59f
8:42pm 18 23 mph 1025.6mb 65f 58f
8:36pm 21 23 mph 1025.5mb 65f 58f
8:30pm 20 24 mph 1025.5mb 65f 58f
8:24pm 22 24 mph 1025.4mb 65f 59f
8:18pm 20 24 mph 1025.4mb 65f 59f
8:12pm 21 24 mph 1025.4mb 65f 59f
8:06pm 22 25 mph 1025.4mb 65f 58f
8:00pm 22 26 mph 1025.3mb 65f 59f
7:54pm 22 26 mph 1025.3mb 65f 59f
7:48pm 20 25 mph 1025.4mb 65f 59f
7:42pm 21 24 mph 1025.3mb 65f 59f
7:36pm 22 25 mph 1025.1mb 65f 59f
7:30pm 21 25 mph 1025.1mb 65f 59f
7:24pm 22 25 mph 1025mb 65f 59f
7:18pm 21 25 mph 1025mb 65f 59f
7:12pm 22 26 mph 1025mb 65f 59f
7:06pm 23 26 mph 1025mb 65f 59f
7:00pm 21 25 mph 1025.1mb 65f 59f
6:54pm 22 25 mph 1025mb 65f 59f
6:48pm 21 26 mph 1025mb 65f 59f
6:42pm 22 25 mph 1024.8mb 65f 59f
6:36pm 22 26 mph 1024.8mb 65f 59f
6:30pm 23 28 mph 1024.8mb 65f 59f
6:24pm 23 29 mph 1024.6mb 65f 59f
6:18pm 24 28 mph 1024.5mb 65f 59f
6:12pm 23 26 mph 1024.4mb 65f 60f
6:06pm 23 26 mph 1024.3mb 65f 60f
6:00pm 24 26 mph 1024.2mb 65f 60f
5:54pm 22 28 mph 1024.1mb 65f 60f
5:48pm 23 26 mph 1024.1mb 65f 60f
5:42pm 23 26 mph 1024mb 65f 60f
5:36pm 24 28 mph 1023.9mb 65f 60f
5:30pm 23 29 mph 1024mb 65f 60f
5:24pm 22 29 mph 1024mb 65f 61f
5:18pm 22 25 mph 1023.9mb 65f 61f
5:12pm 22 26 mph 1023.9mb 65f 61f
5:06pm 23 26 mph 1023.8mb 65f 61f
5:00pm 22 24 mph 1023.9mb 65f 61f
4:54pm 22 24 mph 1023.8mb 65f 61f
4:48pm 22 25 mph 1023.8mb 65f 61f
4:42pm 20 25 mph 1023.8mb 65f 61f
4:36pm 21 25 mph 1023.8mb 66f 61f
4:30pm 21 24 mph 1023.8mb 66f 61f
4:24pm 21 25 mph 1023.8mb 66f 61f
4:18pm 22 26 mph 1023.8mb 66f 61f
4:12pm 22 25 mph 1023.8mb 66f 61f
4:06pm 23 28 mph 1023.8mb 66f 61f
4:00pm 24 28 mph 1023.8mb 66f 61f
3:54pm 24 29 mph 1023.8mb 66f 62f
3:48pm 22 25 mph 1023.7mb 66f 62f
3:42pm 23 26 mph 1023.7mb 66f 62f
3:36pm 22 25 mph 1023.6mb 66f 62f
3:30pm 21 25 mph 1023.7mb 66f 62f
3:24pm 22 24 mph 1023.6mb 66f 62f
3:18pm 20 22 mph 1023.7mb 66f 62f
3:12pm 20 24 mph 1023.6mb 66f 62f
3:06pm 22 26 mph 1023.7mb 66f 62f
3:00pm 22 25 mph 1023.7mb 66f 62f
2:54pm 22 25 mph 1023.7mb 66f 62f
2:48pm 22 25 mph 1023.7mb 66f 62f
2:42pm 23 28 mph 1023.6mb 66f 63f
2:36pm 22 25 mph 1023.6mb 66f 63f
2:30pm 23 26 mph 1023.6mb 66f 63f
2:24pm 22 26 mph 1023.5mb 66f 63f
2:18pm 22 26 mph 1023.4mb 66f 63f
2:12pm 22 26 mph 1023.4mb 66f 63f
2:06pm 24 26 mph 1023.5mb 66f 64f
2:00pm 22 25 mph 1023.5mb 66f 64f
1:54pm 22 24 mph 1023.4mb 66f 64f
1:48pm 20 23 mph 1023.4mb 66f 64f
1:42pm 20 22 mph 1023.4mb 66f 65f
1:36pm 18 22 mph 1023.4mb 66f 65f
1:30pm 18 22 mph 1023.5mb 66f 65f
1:24pm 18 21 mph 1023.5mb 66f 65f
1:18pm 18 20 mph 1023.5mb 66f 65f
1:12pm 17 20 mph 1023.7mb 66f 65f
1:06pm 16 18 mph 1023.8mb 66f 65f
1:00pm 16 21 mph 1023.9mb 66f 66f
12:54pm 16 22 mph 1024mb 66f 66f
12:48pm 17 20 mph 1024.2mb 66f 66f
12:42pm 14 16 mph 1024.3mb 66f 66f
12:36pm 14 15 mph 1024.5mb 66f 66f
12:30pm 13 15 mph 1024.6mb 66f 65f
12:24pm 14 15 mph 1024.7mb 65f 65f
12:18pm 13 16 mph 1024.8mb 65f 65f
12:12pm 14 15 mph 1024.9mb 65f 65f
12:06pm 14 15 mph 1025mb 65f 65f
12:00pm 8 9 mph 1025.1mb 65f 65f
11:54am 5 6 mph 1025.2mb 65f 65f
11:48am 2 3 mph 1025.4mb 65f 66f
11:42am 1 5 mph 1025.5mb 65f 66f
11:36am 2 5 mph 1025.6mb 65f 65f
11:30am 1 5 mph 1025.7mb 65f 66f
11:24am 3 6 mph 1025.8mb 65f 64f
11:18am 5 6 mph 1025.9mb 65f 64f
11:12am 5 6 mph 1025.9mb 65f 63f
11:06am 5 6 mph 1026mb 65f 63f
11:00am 5 6 mph 1026.1mb 65f 63f
10:54am 6 7 mph 1026.2mb 65f 63f
10:48am 6 7 mph 1026.3mb 65f 63f
10:42am 6 7 mph 1026.3mb 65f 63f
10:36am 6 7 mph 1026.3mb 65f 63f
10:30am 6 7 mph 1026.4mb 65f 63f
10:24am 5 7 mph 1026.4mb 65f 63f
10:18am 6 7 mph 1026.5mb 65f 63f
10:12am 6 7 mph 1026.5mb 65f 63f
10:06am 7
mph
1026.6mb 65f 62f
10:00am 7 8 mph 1026.6mb 65f 63f
9:54am 6 8 mph 1026.7mb 65f 63f
9:48am 6 7 mph 1026.7mb 65f 63f
9:42am 6 7 mph 1026.7mb 65f 62f
9:36am 6 7 mph 1026.6mb 65f 62f
9:30am 5 7 mph 1026.6mb 65f 62f
9:24am 6 7 mph 1026.6mb 65f 62f
9:18am 6
mph
1026.5mb 65f 62f
9:12am 6 7 mph 1026.6mb 65f 62f
9:06am 6 7 mph 1026.5mb 65f 62f
9:00am 6 7 mph 1026.4mb 65f 62f
8:54am 6 7 mph 1026.4mb 65f 62f
8:48am 6 7 mph 1026.4mb 65f 61f
8:42am 6 7 mph 1026.3mb 65f 62f
8:36am 5 7 mph 1026.3mb 65f 62f
8:30am 5 6 mph 1026.3mb 65f 63f
8:24am 3 6 mph 1026.3mb 65f 63f
8:18am 5 6 mph 1026.3mb 65f 62f
8:12am 3 7 mph 1026.2mb 65f 61f
8:06am 5
mph
1026.2mb 65f 60f
8:00am 3 6 mph 1026.2mb 65f 59f
7:54am 5 6 mph 1026.2mb 65f 59f
7:48am 5
mph
1026.3mb 65f 58f
7:42am 3 5 mph 1026.3mb 65f 58f
7:36am 3 5 mph 1026.2mb 65f 58f
7:30am 3 5 mph 1026.2mb 65f 57f
7:24am 5
mph
1026.1mb 65f 57f
7:18am 5
mph
1026.1mb 65f 55f
7:12am 5
mph
1026.1mb 65f 54f
7:06am 3 5 mph 1026.2mb 65f 55f
7:00am 5
mph
1026.1mb 65f 54f
6:54am 5
mph
1026.1mb 65f 54f
6:48am 5 6 mph 1026.1mb 65f 54f
6:42am 5 6 mph 1026mb 65f 54f
6:36am 5
mph
1026mb 65f 53f
6:30am 5 6 mph 1025.9mb 65f 52f
6:24am 5 6 mph 1025.9mb 65f 52f
6:18am 5 6 mph 1025.9mb 65f 53f
6:12am 6
mph
1025.8mb 65f 53f
6:06am 3 5 mph 1025.8mb 65f 53f
6:00am 3 5 mph 1025.8mb 65f 54f
5:54am 3 5 mph 1025.7mb 65f 54f
5:48am 3
mph
1025.7mb 65f 54f
5:42am 3 5 mph 1025.6mb 65f 54f
5:36am 5
mph
1025.5mb 65f 54f
5:30am 3 5 mph 1025.5mb 65f 54f
5:24am 3
mph
1025.5mb 65f 54f
5:18am 3
mph
1025.5mb 65f 53f
5:12am 3
mph
1025.5mb 65f 54f
5:06am 3
mph
1025.5mb 65f 54f
5:00am 3
mph
1025.5mb 65f 55f
4:54am 3 5 mph 1025.4mb 65f 56f
4:48am 2 8 mph 1025.4mb 65f 57f
4:42am 6 9 mph 1025.4mb 65f 60f
4:36am 7 9 mph 1025.3mb 65f 60f
4:30am 8 10 mph 1025.3mb 65f 60f
4:24am 9 11 mph 1025.3mb 65f 60f
4:18am 10 13 mph 1025.3mb 65f 60f
4:12am 10 13 mph 1025.3mb 65f 60f
4:06am 10 13 mph 1025.3mb 65f 60f
4:00am 10 13 mph 1025.3mb 65f 60f
3:54am 10 13 mph 1025.3mb 65f 60f
3:48am 9 13 mph 1025.3mb 65f 60f
3:42am 9 13 mph 1025.2mb 65f 60f
3:36am 9 11 mph 1025.2mb 65f 60f
3:30am 10 11 mph 1025.2mb 65f 60f
3:24am 10 11 mph 1025.2mb 65f 60f
3:18am 10 11 mph 1025.1mb 65f 60f
3:12am 9 11 mph 1025.1mb 65f 60f
3:06am 10 13 mph 1025.1mb 66f 60f
3:00am 10 13 mph 1025.2mb 66f 60f
2:54am 10 13 mph 1025.2mb 66f 60f
2:48am 11 13 mph 1025.1mb 66f 60f
2:42am 10 13 mph 1025.1mb 66f 60f
2:36am 10 14 mph 1025.1mb 66f 60f
2:30am 11 14 mph 1025mb 66f 60f
2:24am 11 14 mph 1024.9mb 66f 60f
2:18am 13 15 mph 1024.8mb 66f 60f
2:12am 13 14 mph 1024.8mb 66f 60f
2:06am 11 15 mph 1024.7mb 66f 60f
2:00am 11 14 mph 1024.6mb 66f 60f
1:54am 13 14 mph 1024.6mb 66f 60f
1:48am 14 15 mph 1024.6mb 66f 60f
1:42am 14 15 mph 1024.7mb 66f 60f
1:36am 13 14 mph 1024.7mb 66f 60f
1:30am 13 15 mph 1024.7mb 66f 60f
1:24am 13 15 mph 1024.7mb 66f 60f
1:18am 14 15 mph 1024.8mb 66f 60f
1:12am 13 15 mph 1024.7mb 65f 60f
1:06am 13 15 mph 1024.7mb 65f 60f
1:00am 13 15 mph 1024.6mb 65f 60f
12:54am 13 15 mph 1024.5mb 65f 59f
12:48am 11 13 mph 1024.5mb 65f 60f
12:42am 11 13 mph 1024.5mb 65f 59f
12:36am 10 13 mph 1024.5mb 65f 59f
12:30am 10 11 mph 1024.4mb 66f 59f
12:24am 9 11 mph 1024.4mb 66f 59f
12:18am 10 11 mph 1024.3mb 66f 59f
12:12am 9 11 mph 1024.3mb 66f 59f
12:06am 9 11 mph 1024.3mb 66f 59f
12:00am 9 13 mph 1024.4mb 66f 59f
Wed 11/26 11:54pm 11 13 mph 1024.5mb 66f 59f
11:48pm 9 10 mph 1024.4mb 66f 59f
11:42pm 10 11 mph 1024.4mb 66f 59f
11:36pm 10 11 mph 1024.3mb 66f 59f
11:30pm 7 9 mph 1024.2mb 66f 59f
11:24pm 9 10 mph 1024.2mb 66f 59f
11:18pm 9 10 mph 1024.2mb 66f 59f
11:12pm 9 11 mph 1024.3mb 66f 59f
11:06pm 10 13 mph 1024.4mb 66f 59f
11:00pm 10 13 mph 1024.3mb 66f 59f
10:54pm 10 11 mph 1024.4mb 66f 59f
10:48pm 11 13 mph 1024.4mb 66f 59f
10:42pm 10 14 mph 1024.4mb 66f 59f
10:36pm 11 13 mph 1024.3mb 66f 59f
10:30pm 10 13 mph 1024.3mb 66f 59f
10:24pm 10 13 mph 1024.2mb 66f 59f
10:18pm 10 13 mph 1024.1mb 66f 59f
10:12pm 10 14 mph 1024.2mb 66f 59f
10:06pm 13 14 mph 1024.2mb 66f 59f
10:00pm 11 13 mph 1024.1mb 66f 59f
9:54pm 11 13 mph 1024mb 66f 59f
9:48pm 10 13 mph 1024.1mb 66f 59f
9:42pm 11 13 mph 1024.2mb 66f 59f
9:36pm 13 14 mph 1024.1mb 66f 59f
9:30pm 10 15 mph 1024.1mb 66f 59f
9:24pm 11 14 mph 1024mb 66f 59f
9:18pm 11 13 mph 1024mb 66f 59f
9:12pm 11 14 mph 1024mb 66f 59f
9:06pm 13 15 mph 1023.9mb 66f 59f
9:00pm 11 15 mph 1023.9mb 66f 59f
8:54pm 13 15 mph 1023.9mb 66f 59f
8:48pm 13 15 mph 1023.9mb 66f 59f
8:42pm 13 15 mph 1023.7mb 66f 59f
8:36pm 13 15 mph 1023.7mb 66f 60f
8:30pm 14 16 mph 1023.7mb 66f 59f
8:24pm 15 17 mph 1023.5mb 66f 59f
8:18pm 15 16 mph 1023.5mb 66f 59f
8:12pm 14 16 mph 1023.5mb 66f 59f
8:06pm 15 17 mph 1023.5mb 66f 60f
8:00pm 15 18 mph 1023.5mb 66f 60f
7:54pm 17 20 mph 1023.5mb 66f 60f
7:48pm 16 18 mph 1023.6mb 66f 60f
7:42pm 15 17 mph 1023.5mb 66f 60f
7:36pm 15 18 mph 1023.4mb 66f 60f
7:30pm 15 20 mph 1023.4mb 66f 60f
7:24pm 15 18 mph 1023.4mb 66f 60f
7:18pm 16 18 mph 1023.3mb 66f 60f
7:12pm 15 18 mph 1023.4mb 66f 60f
7:06pm 15 18 mph 1023.3mb 66f 60f
7:00pm 17 20 mph 1023.3mb 66f 60f
6:54pm 16 20 mph 1023.3mb 66f 60f
6:48pm 17 21 mph 1023.3mb 66f 60f
6:42pm 17 20 mph 1023.2mb 66f 60f
6:36pm 17 21 mph 1023.1mb 66f 60f
6:30pm 17 20 mph 1023mb 66f 60f
6:24pm 17 21 mph 1023mb 66f 60f
6:18pm 16 18 mph 1023mb 66f 60f
6:12pm 14 17 mph 1022.8mb 66f 60f
6:06pm 15 16 mph 1022.8mb 66f 60f
6:00pm 13 17 mph 1022.6mb 66f 60f
5:54pm 15 16 mph 1022.6mb 66f 60f
5:48pm 14 16 mph 1022.6mb 66f 60f
5:42pm 15 17 mph 1022.6mb 66f 60f
5:36pm 14 16 mph 1022.5mb 66f 60f
5:30pm 16 18 mph 1022.5mb 66f 60f
5:24pm 14 21 mph 1022.5mb 67f 61f
5:18pm 15 20 mph 1022.4mb 67f 61f
5:12pm 15 17 mph 1022.5mb 67f 61f
5:06pm 17 18 mph 1022.5mb 67f 61f
5:00pm 15 18 mph 1022.5mb 67f 61f
4:54pm 16 20 mph 1022.5mb 67f 61f
4:48pm 17 21 mph 1022.4mb 67f 61f
4:42pm 17 20 mph 1022.4mb 67f 61f
4:36pm 16 21 mph 1022.4mb 67f 61f
4:30pm 17 22 mph 1022.4mb 67f 61f
4:24pm 20 22 mph 1022.4mb 67f 61f
4:18pm 18 22 mph 1022.3mb 67f 60f
4:12pm 18 22 mph 1022.2mb 67f 60f
4:06pm 17 22 mph 1022.2mb 67f 61f
4:00pm 16 21 mph 1022.2mb 67f 61f
3:54pm 16 21 mph 1022.1mb 67f 61f
3:48pm 15 18 mph 1022.1mb 67f 61f
3:42pm 15 17 mph 1022mb 67f 61f
3:36pm 17 22 mph 1021.8mb 67f 61f
3:30pm 16 22 mph 1022mb 67f 61f
3:24pm 16 20 mph 1022mb 67f 61f
3:18pm 17 22 mph 1021.8mb 67f 60f
3:12pm 18 21 mph 1021.8mb 67f 61f
3:06pm 17 21 mph 1021.7mb 67f 61f
3:00pm 17 21 mph 1021.7mb 67f 61f
2:54pm 18 22 mph 1021.7mb 67f 60f
2:48pm 17 20 mph 1021.7mb 67f 61f
2:42pm 17 21 mph 1021.8mb 67f 60f
2:36pm 17 23 mph 1021.6mb 67f 61f
2:30pm 20 22 mph 1021.5mb 67f 61f
2:24pm 18 22 mph 1021.5mb 67f 60f
2:18pm 18 22 mph 1021.6mb 67f 60f
2:12pm 17 20 mph 1021.6mb 67f 60f
2:06pm 20 22 mph 1021.5mb 67f 60f
2:00pm 21 23 mph 1021.5mb 67f 60f
1:54pm 17 22 mph 1021.5mb 67f 60f
1:48pm 20 24 mph 1021.5mb 67f 60f
1:42pm 20 23 mph 1021.6mb 67f 59f
1:36pm 20 22 mph 1021.6mb 67f 60f
1:30pm 20 23 mph 1021.6mb 67f 60f
1:24pm 20 25 mph 1021.6mb 67f 60f
1:18pm 18 22 mph 1021.8mb 67f 59f
1:12pm 20 23 mph 1021.9mb 67f 59f
1:06pm 22 24 mph 1021.9mb 67f 59f
1:00pm 18 21 mph 1022mb 67f 59f
12:54pm 16 21 mph 1022.1mb 67f 59f
12:48pm 17 18 mph 1022.1mb 67f 59f
12:42pm 17 21 mph 1022.1mb 67f 59f
12:36pm 16 18 mph 1022.2mb 67f 59f
12:30pm 15 20 mph 1022.2mb 67f 59f
12:24pm 16 21 mph 1022.1mb 67f 59f
12:18pm 15 18 mph 1022mb 67f 59f
12:12pm 17 20 mph 1022.2mb 67f 59f
12:06pm 17 21 mph 1022.1mb 67f 59f
12:00pm 17 20 mph 1022.1mb 67f 58f
11:54am 17 18 mph 1022.3mb 67f 58f
11:48am 15 17 mph 1022.4mb 67f 58f
11:42am 15 21 mph 1022.5mb 67f 58f
11:36am 15 22 mph 1022.5mb 67f 58f
11:30am 17 21 mph 1022.3mb 67f 58f
11:24am 17 22 mph 1022.4mb 67f 58f
11:18am 18 22 mph 1022.4mb 67f 58f
11:12am 17 23 mph 1022.3mb 67f 58f
11:06am 17 21 mph 1022.3mb 67f 58f
11:00am 15 20 mph 1022.3mb 67f 58f
10:54am 14 18 mph 1022.3mb 67f 57f
10:48am 16 18 mph 1022mb 67f 57f
10:42am 13 18 mph 1022mb 67f 57f
10:36am 15 22 mph 1021.9mb 67f 57f
10:30am 15 20 mph 1022.2mb 67f 57f
10:24am 14 18 mph 1022.3mb 67f 57f
10:18am 16 21 mph 1022mb 67f 57f
10:12am 17 21 mph 1021.9mb 67f 57f
10:06am 16 21 mph 1022.1mb 67f 57f
10:00am 17 22 mph 1021.9mb 67f 57f
9:54am 20 23 mph 1021.4mb 67f 57f
9:48am 20 23 mph 1021.6mb 67f 57f
9:42am 21 25 mph 1021.6mb 67f 57f
9:36am 23 29 mph 1021mb 67f 57f
9:30am 24 31 mph 1021.3mb 67f 57f
9:24am 24 30 mph 1021.3mb 67f 57f
9:18am 26 32 mph 1020.9mb 67f 58f
9:12am 29 34 mph 1020.8mb 67f 58f
9:06am 31 34 mph 1020.7mb 67f 58f
9:00am 26 31 mph 1021mb 67f 58f
8:54am 25 32 mph 1020.8mb 67f 58f
8:48am 26 31 mph 1020.6mb 67f 58f
8:42am 28 32 mph 1020.3mb 67f 58f
8:36am 28 31 mph 1020.3mb 67f 58f
8:30am 26 29 mph 1020.2mb 67f 58f
8:24am 18 22 mph 1020.2mb 67f 57f
8:18am 20 22 mph 1019.9mb 67f 57f
8:12am 18 24 mph 1019.8mb 67f 58f
8:06am 20 26 mph 1019.6mb 67f 58f
8:00am 22 25 mph 1020mb 67f 58f
7:54am 20 22 mph 1020mb 67f 57f
7:48am 18 22 mph 1019.6mb 67f 58f
7:42am 20 23 mph 1019.2mb 67f 57f
7:36am 16 21 mph 1019mb 67f 58f
7:30am 18 23 mph 1018.9mb 67f 57f
7:24am 18 24 mph 1018.9mb 67f 57f
7:18am 16 20 mph 1018.7mb 67f 58f
7:12am 17 21 mph 1018.2mb 67f 57f
7:06am 17 21 mph 1018mb 67f 58f
7:00am 15 21 mph 1018.2mb 67f 57f
6:54am 14 17 mph 1018.2mb 67f 58f
6:48am 16 20 mph 1018.1mb 67f 58f
6:42am 17 21 mph 1017.9mb 67f 58f
6:36am 16 20 mph 1017.9mb 67f 58f
6:30am 20 22 mph 1017.6mb 67f 58f
6:24am 18 23 mph 1017.5mb 67f 57f
6:18am 22 28 mph 1017.1mb 67f 57f
6:12am 24 29 mph 1016.6mb 67f 57f
6:06am 24 29 mph 1016.5mb 67f 57f
6:00am 23 30 mph 1016.3mb 67f 57f
5:54am 23 32 mph 1016mb 67f 57f
5:48am 28 36 mph 1015.6mb 67f 57f
5:42am 30 36 mph 1015.9mb 67f 57f
5:36am 31 36 mph 1016.5mb 67f 57f
5:30am 30 36 mph 1016.8mb 67f 58f
5:24am 30 38 mph 1017mb 67f 58f
5:18am 30 40 mph 1016.9mb 67f 58f
5:12am 30 39 mph 1016.8mb 67f 58f
5:06am 33 38 mph 1017mb 67f 58f
5:00am 30 38 mph 1016.6mb 67f 58f
4:54am 28 36 mph 1016.4mb 67f 59f
4:48am 30 36 mph 1016mb 67f 59f
4:42am 25 31 mph 1015.7mb 67f 59f
4:36am 28 32 mph 1015.4mb 67f 59f
4:30am 29 36 mph 1015.1mb 68f 59f
4:24am 29 37 mph 1014.5mb 68f 59f
4:18am 26 34 mph 1014.4mb 68f 60f
4:12am 26 32 mph 1014.1mb 68f 60f
4:06am 31 36 mph 1014.5mb 68f 59f
4:00am 30 34 mph 1014.8mb 68f 60f
3:54am 30 34 mph 1015mb 68f 60f
3:48am 30 33 mph 1014.7mb 68f 60f
3:42am 28 32 mph 1014.2mb 68f 61f
3:36am 26 31 mph 1013.7mb 68f 61f
3:30am 26 30 mph 1013.6mb 68f 61f
3:24am 22 28 mph 1014.1mb 68f 61f
3:18am 23 28 mph 1013.4mb 68f 62f
3:12am 22 24 mph 1013.9mb 68f 62f
3:06am 21 26 mph 1014.4mb 68f 63f
3:00am 23 30 mph 1014mb 68f 63f
2:54am 25 28 mph 1013.7mb 68f 63f
2:48am 23 26 mph 1013.5mb 68f 63f
2:42am 22 26 mph 1013.4mb 68f 63f
2:36am 21 24 mph 1013.6mb 68f 64f
2:30am 21 24 mph 1013.4mb 68f 64f
2:24am 22 25 mph 1013.2mb 68f 64f
2:18am 22 24 mph 1013.5mb 68f 64f
2:12am 22 24 mph 1013.2mb 68f 65f
2:06am 24 26 mph 1013.2mb 68f 65f
2:00am 21 24 mph 1012.8mb 68f 66f
1:54am 17 25 mph 1012.7mb 68f 66f
1:48am 13 15 mph 1012.4mb 68f 70f
1:42am 14 16 mph 1012.5mb 68f 70f
1:36am 16 18 mph 1012.4mb 68f 70f
1:30am 14 15 mph 1012.5mb 68f 70f
1:24am 10 13 mph 1012.3mb 68f 69f
1:18am 10 11 mph 1012.2mb 68f 69f
1:12am 9 10 mph 1012.2mb 68f 69f
1:06am 7 8 mph 1012mb 68f 69f
1:00am 7 8 mph 1011.9mb 68f 69f
12:54am 6 7 mph 1011.7mb 68f 69f
12:48am 3
mph
1011.6mb 68f 69f
12:42am 3
mph
1011.4mb 68f 69f
12:36am 2 5 mph 1011.2mb 68f 69f
12:30am 5 6 mph 1011.4mb 68f 69f
12:24am 3 5 mph 1011.1mb 68f 70f
12:18am 5 7 mph 1011.2mb 68f 70f
12:12am 6 7 mph 1011.2mb 68f 70f
12:06am 5 7 mph 1011.2mb 68f 70f
12:00am 6 8 mph 1011.3mb 68f 70f
Tue 11/25 11:54pm 7 11 mph 1011.3mb 68f 70f
11:48pm 8 10 mph 1011.6mb 68f 71f
11:42pm 9 11 mph 1011.4mb 68f 71f
11:36pm 8 11 mph 1011.1mb 68f 71f
11:30pm 9 11 mph 1011.1mb 68f 71f
11:24pm 8 11 mph 1011.2mb 68f 71f
11:18pm 8 10 mph 1011.7mb 68f 71f
11:12pm 8 10 mph 1011.8mb 68f 71f
11:06pm 7 9 mph 1012mb 68f 71f
11:00pm 8 11 mph 1012.1mb 68f 71f
10:54pm 8 11 mph 1012.4mb 68f 70f
10:48pm 9 11 mph 1012.5mb 68f 70f
10:42pm 8 11 mph 1012.4mb 68f 70f
10:36pm 8 11 mph 1012.3mb 68f 70f
10:30pm 9 11 mph 1012.5mb 68f 70f
10:24pm 5 7 mph 1012mb 68f 70f
10:18pm 5 7 mph 1012mb 68f 70f
10:12pm 6 10 mph 1012.2mb 68f 70f
10:06pm 7 8 mph 1012.1mb 68f 70f
10:00pm 7 8 mph 1012.5mb 68f 70f
9:54pm 5 6 mph 1012mb 68f 70f
9:48pm 2 3 mph 1012.3mb 68f 70f
9:42pm 3 5 mph 1012.5mb 68f 70f
9:36pm 5 6 mph 1012.5mb 68f 71f
9:30pm 5 7 mph 1012.4mb 68f 71f
9:24pm 5 6 mph 1013mb 68f 71f
9:18pm 3 5 mph 1013.2mb 68f 71f
9:12pm 3 5 mph 1013.1mb 68f 71f
9:06pm 3 5 mph 1013.2mb 68f 71f
9:00pm 3 5 mph 1013.3mb 68f 71f
8:54pm  -  6 mph 1013.5mb 68f 71f
8:48pm 5 7 mph 1013.2mb 68f 71f
8:42pm 5 6 mph 1013.4mb 68f 71f
8:36pm 3 5 mph 1013.4mb 68f 71f
8:30pm  -  2 mph 1013.6mb - 71f
8:24pm 1 2 mph 1013.5mb - 71f
8:18pm 1 2 mph 1013.6mb 68f 71f
8:12pm 1 3 mph 1013.6mb 68f 71f
8:06pm 2 3 mph 1013.8mb 68f 71f
8:00pm 2 3 mph 1013.3mb 68f 71f
7:54pm 3 5 mph 1012.8mb 68f 70f
7:48pm 2 5 mph 1013.5mb 68f 70f
7:42pm 5 6 mph 1012.8mb 68f 71f
7:36pm 2 3 mph 1012.8mb 68f 71f
7:30pm 2 5 mph 1012.9mb 68f 71f
7:24pm 5 6 mph 1013mb 68f 70f
7:18pm 5 6 mph 1013.3mb 68f 70f
7:12pm 3 6 mph 1013.3mb 68f 70f
7:06pm 5 6 mph 1013.5mb 68f 71f
7:00pm 5
mph
1013.5mb 68f 71f
6:54pm 3 5 mph 1013.2mb 68f 71f
6:48pm 3 5 mph 1013.4mb 68f 71f
6:42pm 5 6 mph 1013.1mb 68f 71f
6:36pm 6
mph
1012.6mb 68f 71f
6:30pm 2 6 mph 1012.8mb 68f 71f
6:24pm 6 14 mph 1012.9mb 68f 71f
6:18pm 13 16 mph 1013mb 68f 71f
6:12pm 16 17 mph 1013mb 68f 71f
6:06pm 13 17 mph 1012.8mb 68f 72f
6:00pm 16 18 mph 1012.9mb 68f 72f
5:54pm 14 15 mph 1012.8mb 68f 72f
5:48pm 11 14 mph 1012.5mb 68f 73f
5:42pm 8 13 mph 1012.4mb 68f 73f
5:36pm 9 11 mph 1012.3mb 68f 73f
5:30pm 6 11 mph 1012.5mb 68f 71f
5:24pm 10 13 mph 1012.5mb 68f 73f
5:18pm 9 13 mph 1012.4mb 68f 72f
5:12pm 10 14 mph 1012.4mb 68f 72f
5:06pm 10 13 mph 1012.2mb 68f 73f
5:00pm 10 15 mph 1012.1mb 68f 73f
4:54pm 11 14 mph 1012.1mb 68f 73f
4:48pm 10 13 mph 1012.2mb 68f 73f
4:42pm 10 11 mph 1012.3mb 68f 72f
4:36pm 10 11 mph 1012.5mb 68f 72f
4:30pm 10 13 mph 1012.6mb 68f 72f
4:24pm 11 14 mph 1012.6mb 68f 72f
4:18pm 13 14 mph 1012.6mb 68f 72f
4:12pm 11 13 mph 1012.4mb 68f 71f
4:06pm 11 14 mph 1012.4mb 68f 71f
4:00pm 11 13 mph 1012.1mb 68f 71f
3:54pm 10 13 mph 1012.3mb 68f 71f
3:48pm 13 18 mph 1012.3mb 68f 72f
3:42pm 15 20 mph 1012.2mb 69f 74f
3:36pm 16 21 mph 1012mb 69f 74f
3:30pm 16 20 mph 1012.3mb 69f 73f
3:24pm 13 15 mph 1012.6mb 68f 72f
3:18pm 14 16 mph 1012.8mb 68f 72f
3:12pm 15 17 mph 1012.9mb 68f 72f
3:06pm 15 17 mph 1012.6mb 68f 73f
3:00pm 13 15 mph 1012.5mb 68f 72f
2:54pm 13 15 mph 1012.6mb 68f 72f
2:48pm 13 15 mph 1012.7mb 68f 72f
2:42pm 14 15 mph 1012.8mb 68f 72f
2:36pm 15 17 mph 1012.7mb 68f 72f
2:30pm 16 17 mph 1012.7mb 68f 72f
2:24pm 14 16 mph 1012.6mb 68f 72f
2:18pm 14 16 mph 1012.7mb 68f 72f
2:12pm 14 15 mph 1012.8mb 68f 72f
2:06pm 11 14 mph 1012.7mb 68f 72f
2:00pm 13 15 mph 1012.7mb 68f 73f
1:54pm 15 16 mph 1012.6mb 68f 73f
1:48pm 14 17 mph 1012.7mb 68f 73f
1:42pm 14 18 mph 1012.8mb 68f 73f
1:36pm 16 22 mph 1012.7mb 68f 74f
1:30pm 14 17 mph 1012.7mb 68f 74f
1:24pm 14 20 mph 1012.7mb 68f 74f
1:18pm 15 18 mph 1012.7mb 68f 74f
1:12pm 14 17 mph 1012.8mb 68f 74f
1:06pm 13 16 mph 1012.9mb 68f 73f
1:00pm 10 13 mph 1013mb 68f 73f
12:54pm 9 11 mph 1013.1mb 68f 72f
12:48pm 10 15 mph 1013.2mb 68f 72f
12:42pm 11 16 mph 1013.5mb 67f 72f
12:36pm 13 16 mph 1013.7mb 68f 73f
12:30pm 13 15 mph 1014.1mb 68f 72f
12:24pm 13 15 mph 1014.3mb 68f 72f
12:18pm 13 14 mph 1014.3mb 68f 72f
12:12pm 11 13 mph 1014.5mb 68f 72f
12:06pm 10 11 mph 1014.6mb 68f 71f
12:00pm 9 10 mph 1014.7mb 68f 71f
11:54am 9 11 mph 1014.9mb 68f 71f
11:48am 9 10 mph 1014.9mb 68f 71f
11:42am 9 10 mph 1014.9mb 68f 71f
11:36am 10 11 mph 1015mb 68f 71f
11:30am 11 13 mph 1015mb 68f 71f
11:24am 13 14 mph 1015mb 68f 71f
11:18am 13 14 mph 1015.1mb 68f 72f
11:12am 11 15 mph 1015.1mb 68f 72f
11:06am 8 10 mph 1015.2mb 68f 72f
11:00am 6 7 mph 1015.4mb 68f 71f
10:54am 5 7 mph 1015.5mb 68f 72f
10:48am 6 9 mph 1015.6mb 68f 72f
10:42am 7 9 mph 1015.7mb 68f 72f
10:36am 5 6 mph 1015.9mb 68f 72f
10:30am 5 7 mph 1016mb 68f 72f
10:24am 7 9 mph 1016mb 68f 72f
10:18am 7 13 mph 1016mb 68f 71f
10:12am 6 7 mph 1016.2mb 68f 71f
10:06am 5 6 mph 1016.2mb 68f 71f
10:00am 3 5 mph 1016.3mb 68f 71f
9:54am 5 6 mph 1016.2mb 67f 71f
9:48am 6 7 mph 1016.2mb 67f 71f
9:42am 5 6 mph 1016.2mb 67f 72f
9:36am 5 7 mph 1016.1mb 67f 72f
9:30am 6 8 mph 1016.2mb 67f 72f
9:24am 6 7 mph 1016.1mb 67f 72f
9:18am 6 8 mph - - -
9:12am 6 8 mph - - -
9:06am 6 9 mph - - -
9:00am 6
mph
1016.3mb 67f 73f
8:54am 6 8 mph 1016.3mb 67f 73f
8:48am 7 10 mph 1016.3mb 67f 73f
8:42am 6 8 mph 1016.3mb 67f 72f
8:36am 6 7 mph 1016.3mb 67f 72f
8:30am 7 11 mph 1016.3mb 67f 72f
8:24am 8 10 mph 1016.3mb 67f 72f
8:18am 5 8 mph 1016.3mb 67f 72f
8:12am 6 16 mph 1016.3mb 67f 72f
8:06am 10 16 mph 1016.3mb 67f 72f
8:00am 7 9 mph 1016.2mb 67f 73f
7:54am 6 8 mph 1016.1mb 67f 73f
7:48am 5 11 mph 1015.8mb 67f 73f
7:42am 9 13 mph 1015.9mb 67f 73f
7:36am 8 13 mph 1016mb 67f 73f
7:30am 8 10 mph 1016mb 67f 73f
7:24am 6 9 mph 1015.8mb 67f 73f
7:18am 6 8 mph 1015.9mb 67f 73f
7:12am 6 9 mph 1015.7mb 67f 73f
7:06am 7 9 mph 1015.7mb 67f 73f
7:00am 6 8 mph 1015.6mb 67f 73f
6:54am 7 9 mph 1015.7mb 67f 72f
6:48am 8 11 mph 1015.6mb 67f 72f
6:42am 9 13 mph 1015.6mb 67f 73f
6:36am 6 9 mph 1015.6mb 67f 72f
6:30am 8 11 mph 1015.7mb 67f 72f
6:24am 8 10 mph 1015.7mb 67f 72f
6:18am 7 9 mph 1015.6mb 67f 72f
6:12am 7 9 mph 1015.5mb 67f 71f
6:06am 7 9 mph 1015.6mb 67f 71f
6:00am 7 8 mph 1015.7mb 67f 71f
5:54am 7 8 mph 1015.9mb 67f 71f
5:48am 6 8 mph 1015.8mb 67f 71f
5:42am 6 8 mph 1015.8mb 67f 71f
5:36am 6 8 mph 1015.8mb 67f 72f
5:30am 6 7 mph 1015.5mb 67f 72f
5:24am 6 9 mph 1015.4mb 67f 71f
5:18am 7 10 mph 1015.4mb 67f 71f
5:12am 9 10 mph 1015.6mb 67f 71f
5:06am 8 10 mph 1015.6mb 67f 71f
5:00am 8 10 mph 1015.5mb 67f 71f
4:54am 8 11 mph 1015.5mb 67f 70f
4:48am 9 13 mph 1015.5mb 67f 71f
4:42am 8 10 mph 1015.6mb 67f 71f
4:36am 8 10 mph 1015.3mb 67f 71f
4:30am 8 10 mph 1015.3mb 67f 71f
4:24am 8 11 mph 1015.2mb 67f 72f
4:18am 9 13 mph 1015.2mb 67f 72f
4:12am 8 10 mph 1015.4mb 67f 71f
4:06am 7 8 mph 1015.4mb 67f 71f
4:00am 6 8 mph 1015.3mb 67f 71f
3:54am 5 7 mph 1015.3mb 67f 71f
3:48am 6 9 mph 1015.4mb 67f 71f
3:42am 8 11 mph 1015.6mb 67f 71f
3:36am 9 11 mph 1015.6mb 67f 71f
3:30am 7 9 mph 1015.6mb 67f 71f
3:24am 7 9 mph 1015.5mb 67f 71f
3:18am 7 10 mph 1015.4mb 67f 71f
3:12am 8 10 mph 1015.4mb 67f 71f
3:06am 6 7 mph 1015.4mb 67f 71f
3:00am 6 8 mph 1015.6mb 67f 71f
2:54am 6 7 mph 1015.7mb 67f 71f
2:48am 6 8 mph 1015.9mb 67f 71f
2:42am 5 6 mph 1016.1mb 67f 71f
2:36am 5
mph
1016.1mb 68f 71f
2:30am 5 6 mph 1016.2mb 68f 71f
2:24am 5 6 mph 1016.3mb 68f 71f
2:18am 5 7 mph 1016.3mb 68f 70f
2:12am 6 7 mph 1016.4mb 68f 70f
2:06am 5 6 mph 1016.5mb 68f 70f
2:00am 3 6 mph 1016.5mb 68f 70f
1:54am 2 3 mph 1016.6mb 68f 69f
1:48am 3
mph
1016.5mb 68f 69f
1:42am 2
mph
1016.7mb 68f 69f
1:36am  -  1 mph 1016.8mb 68f 69f
1:30am  -  2 mph 1016.7mb 68f 69f
1:24am 1 2 mph 1016.7mb 68f 69f
1:18am 3 5 mph 1016.6mb 68f 69f
1:12am 5 6 mph 1016.6mb 68f 70f
1:06am 6
mph
1016.6mb 68f 70f
1:00am 6 7 mph 1016.5mb 68f 70f
12:54am 6 7 mph 1016.5mb 68f 70f
12:48am 5 6 mph 1016.6mb 68f 70f
12:42am 5 6 mph 1016.7mb 68f 70f
12:36am 5 7 mph 1016.9mb 68f 70f
12:30am 6 7 mph 1016.9mb 68f 71f
12:24am 5 6 mph 1017mb 68f 70f
12:18am 3 5 mph 1016.9mb 68f 70f
12:12am 3 5 mph 1016.9mb 68f 70f
12:06am 3
mph
1017mb 68f 71f
12:00am 3 5 mph 1017mb 68f 71f
Mon 11/24 11:54pm 3
mph
1017.1mb 68f 71f
11:48pm 2 3 mph 1017.2mb 68f 70f
11:42pm 2
mph
1017.2mb 68f 70f
11:36pm 1 2 mph 1017.2mb 68f 70f
11:30pm  -  1 mph 1017.3mb 68f 70f
11:24pm  -  1 mph 1017.4mb 68f 70f
11:18pm  -  1 mph 1017.5mb 68f 70f
11:12pm  -  1 mph 1017.5mb 68f 70f
11:06pm 1 2 mph 1017.5mb 68f 70f
11:00pm 1 2 mph 1017.5mb 68f 71f
10:54pm 2 3 mph 1017.4mb 68f 70f
10:48pm 2 3 mph 1017.2mb 68f 71f
10:42pm 3 5 mph 1017.3mb 68f 71f
10:36pm 3 5 mph 1017.3mb 68f 71f
10:30pm 5 6 mph 1017.3mb 68f 71f
10:24pm 5 6 mph 1017.3mb 68f 71f
10:18pm 6
mph
1017.2mb 68f 71f